GOES 10 [-]

Last updated on Oct. 25, 2020, 5:55 a.m. UTC

1 24786U 97019A   20298.51712072 -.00000035  00000-0  00000+0 0  9997
2 24786  10.7468  34.3623 0026685 190.5534 259.7245  0.99121399 85628
UTC
Height (km)
Latitude
Longitude
Inclination
Orbital Period
UTC large
Height (km)
Speed (km/s)
/
Latitude / Longitude
Inclination (degrees)
Orbital Period (minutes)
Azimuth
Elevation
Range (km)
Doppler Factor
iOS Compass Heading
iOS Angle

Next 30 passes for location: Hong Kong

Rise time Rise Azimuth (degrees) Set time Set Azimuth (degrees) Duration Max altitude (degrees)

No matching passes for this satellites